Meath Environmental Platform

Observations for Trim Market St

Time AQI Temp °C Hum % Pres Pa CO μg/m³ H₂S μg/m³ NO μg/m³ NO₂ μg/m³ O₃ μg/m³ SO₂ μg/m³ PM1 μg/m³ PM2.5 μg/m³ PM10 μg/m³
Friday 14 August 2026
02:05 2 23.7 71 50,679 0 0 1.16 13.17 49.59 0 2.14 3.5 5.66
02:04 2 23.8 71 50,798 0 0 1.17 13.67 46.61 0 2.14 3.99 6.91
02:03 2 23.7 71 50,926 0 0 1.17 13.13 46.64 0 1.43 3.02 5.04
02:02 2 23.8 71 51,026 0 0 1.17 14.5 50.16 0 0.71 3.02 6.91
02:01 2 23.8 71 51,138 0 0 1.16 12.68 51.92 0 0.71 3.02 5.04
02:00 2 23.8 71 51,179 0 0 1.19 14.75 42.54 0 2.14 2.54 4.42
01:59 2 23.8 71 51,346 0 0 1.18 13.62 49.33 0 1.43 3.51 5.66
01:58 2 23.8 71 51,408 0 0 1.15 13.76 48.38 0 1.43 3.51 5.66
01:57 2 23.8 71 51,495 0 0 1.16 12.88 47.82 0 0.71 2.54 5.04
01:56 2 23.8 71 51,582 0 0 1.17 9.96 51.21 0 0.71 3.03 5.04
01:55 2 23.8 71 51,711 0 0 1.14 16.23 47.64 0 1.43 2.54 5.04
01:54 2 23.8 71 51,945 0 0 1.14 15.7 49.1 0 0.71 2.54 4.41
01:53 2 23.8 70 52,161 0 0 1.17 13.42 47.66 0 0.71 2.06 3.79
01:52 2 23.8 70 52,265 0 0 1.17 12.57 54.88 0 2.14 2.55 4.41
01:49 2 23.8 70 52,397 0 0 1.12 13.7 48.98 0 1.43 3.04 5.03
01:48 2 23.8 70 52,512 0 0 1.11 13.64 50.01 0 0.71 2.07 5.03
01:47 2 23.8 70 52,598 0 0 1.1 13.54 50.25 0 1.43 2.55 4.4
01:42 2 23.8 70 53,183 0 0 1.14 13.69 47.44 0 1.43 2.57 5.65
01:35 2 23.9 70 53,281 0 0 1.11 13.58 49.69 0 0 2.09 5.02
01:34 2 23.8 70 53,284 0 0 1.09 13.35 50.01 0 0.71 3.55 6.27